Regional Weather Roundup
Issued by NWS San Diego, CA

Home | Current Version | Previous Version | Text Only | Print | Product List | Glossary On
Versions: 1 2 3 4 5 6 7 8 9 10 11 12 13 14 15 16 17 18 19 20 21 22 23 24 25 26 27 28 29 30 31 32 33 34 35 36 37 38 39 40 41 42 43 44 45 46 47 48 49 50
000
ASUS46 KSGX 231011
RWRSGX

SAN DIEGO HOURLY WEATHER ROUNDUP
NATIONAL WEATHER SERVICE SAN DIEGO CA
200 AM PST TUE JAN 23 2018

NOTE: "FAIR" INDICATES FEW OR NO CLOUDS BELOW 12,000 FEET WITH NO
SIGNIFICANT WEATHER AND/OR OBSTRUCTIONS TO VISIBILITY.

CAZ042-043-060-061-PZZ750-775-231100-

GREATER SAN DIEGO AREA

CITY           SKY/WX    TMP DP  RH WIND       PRES   REMARKS
SAN DIEGO AP   CLEAR     49  35  58 N3        30.15F
NATIONAL CITY    N/A     46  35  65 CALM      30.17R
CHULA VISTA      N/A     44  36  74 CALM      30.06S
IMPERIAL BEACH CLEAR     48  35  60 E9        30.14S
BROWN FIELD    CLEAR     44  32  62 NE6       30.13S
MIRAMAR MCAS   CLEAR     47  30  51 E8        30.13S
MONTGOMERY FLD CLEAR     44  30  57 CALM      30.14S
GILLESPIE FLD  FAIR      41  32  70 CALM      30.14S

$$

NORTH SAN DIEGO COUNTY

CITY           SKY/WX    TMP DP  RH WIND       PRES   REMARKS
OCEANSIDE AP   CLEAR     43  31  62 NE7       30.14F
OCEANSIDE HBR    N/A     47  29  49 CALM      30.16S
VISTA            N/A     47  29  49 CALM      30.12F
CARLSBAD       CLEAR     50  29  44 N3        30.12F
DEL MAR          N/A     50  33  51 CALM      30.15F
LA JOLLA SCRIP   N/A     55  30  39 NE3       30.13F
FALLBROOK        N/A     52  27  38 CALM      30.15F
ESCONDIDO        N/A     44  30  58 W1        30.16S
SAN MARCOS       N/A     49  29  44 CALM      30.17F
POWAY            N/A     39  32  78 CALM      30.16S

$$

EAST SAN DIEGO COUNTY

CITY           SKY/WX    TMP DP  RH WIND       PRES   REMARKS
RAMONA         CLEAR     33  26  75 W6        30.14S WCI  28
SANTEE LAKES     N/A     40  33  77 CALM      30.15S
JAMUL            N/A     42  28  58 CALM      30.15S
DESCANSO N       N/A     51  22  31 NE3       30.09
MT. LAGUNA OBS   N/A     37  16  42 NE14      30.17F WCI  28
CAMPO            N/A     51  17  26 N7        30.09F

$$

ORANGE COUNTY AND THE LOS ANGELES BASIN

CITY           SKY/WX    TMP DP  RH WIND       PRES   REMARKS
JOHN WAYNE AP  CLEAR     47  39  74 CALM      30.14S
LAGUNA BEACH     N/A     42  35  75 CALM      30.10R
HUNTINGTON BCH   N/A     42  39  88 CALM      30.16S
LOS ALAMITOS   FAIR      44  35  72 CALM      30.14S
FULLERTON      CLEAR     46  34  62 CALM      30.14S
LONG BEACH     CLEAR     51  36  56 NW6       30.15S
L.A. AP        CLEAR     51  33  50 NE3       30.16S
L.A. DOWNTOWN  CLEAR     52  28  39 CALM      30.15S

$$

THE INLAND EMPIRE

CITY           SKY/WX    TMP DP  RH WIND       PRES   REMARKS
CORONA           N/A     35  29  78 MISG        N/A
CHINO          CLEAR     44  33  65 N3        30.17F
ONTARIO        CLEAR     45  27  49 CALM      30.15F
SAN BERNARDINO FAIR      43  29  56 E5        30.17S
RIVERSIDE AP   CLEAR     46  29  51 NE6       30.16S
MORENO VALLEY    N/A     49  29  45 CALM      28.28F
MARCH ARB      CLEAR     40  24  53 CALM      30.16S
HORSETHIEF CYN   N/A     49  17  27 W3        30.19S
PERRIS           N/A     44  31  60 SE2       30.13F
HEMET EAST       N/A     46  13  26 CALM      30.22F
FRENCH VALLEY  FAIR      41  27  56 NE5       30.17S
TEMECULA         N/A     41  32  70 CALM      30.22S

$$

SAN BERNARDINO AND RIVERSIDE COUNTY MOUNTAINS

CITY           SKY/WX    TMP DP  RH WIND       PRES   REMARKS
BIG BEAR AP    CLEAR     21  16  79 CALM      30.25S
ANGELUS OAKS     N/A     36  21  55 CALM      30.23S

$$

SOUTHERN DESERT INCLUDING THE COACHELLA VALLEY

CITY           SKY/WX    TMP DP  RH WIND       PRES   REMARKS
PALM SPRINGS   CLEAR     52  23  32 N7        30.19S
THOUSAND PALMS   N/A     46  25  42 W2        30.16S
PALM DESERT      N/A     45  31  59 CALM        N/A
THERMAL        CLEAR     40  26  57 W3        30.16S
BLYTHE         CLEAR     45  16  31 CALM      30.17S
IMPERIAL AP    CLEAR     42  16  34 W5        30.15F
EL CENTRO NAS  CLEAR     42  12  29 W6        30.17S
YUMA AZ        CLEAR     50  17  27 N7        30.13F

$$

UPPER DESERT

CITY           SKY/WX    TMP DP  RH WIND       PRES   REMARKS
VICTORVILLE AP CLEAR     28  16  59 CALM      30.25S
HESPERIA         N/A     34  18  53 CALM      30.45R
APPLE VALLEY     N/A     25  20  80 CALM      30.36S
PALMDALE       CLEAR     37  28  70 SW6       30.26R WCI  32
LANCASTER      CLEAR     29  24  82 W6        30.26S WCI  23
EDWARDS AFB    CLEAR     32  17  53 W5        30.24S WCI  28
DAGGETT        CLEAR     36  18  48 W9        30.25S WCI  29
29 PALMS N     CLEAR     41  16  36 NW8       30.29S
NEEDLES        CLEAR     48  21  34 W3        30.21R

$$

REGIONAL REPORTS

CITY           SKY/WX    TMP DP  RH WIND       PRES   REMARKS
SANTA BARBARA  CLEAR     48  39  71 CALM      30.16S
SANDBERG       CLEAR     42  36  79 N14       30.25R
LAS VEGAS NV   PTCLDY    40  27  59 CALM      30.26S
PHOENIX AZ     CLEAR     42  25  50 CALM      30.12S
TIJUANA        CLEAR     46  32  57 CALM      30.16F
ENSENADA NW      N/A     55  32  41 CALM      30.04F

$$

OFFSHORE ISLANDS

CITY           SKY/WX    TMP DP  RH WIND       PRES   REMARKS
CATALINA ARPT    N/A     56  32  40 NW7       30.16F
SAN NICOLAS IS MOCLDY    55  32  41 NW24G31   30.16S

$$

MARINE AND OFFSHORE BUOY REPORTS

STATION/POSITION SKY/WX   TEMP    WIND        PRES    VSBY  SWELL
                          AIR SEA DIR/SP/G                  HT/PER/DIR
                          (F)     (DEG/KT/KT) (MB)    (MI)  (FT/S/D)
TANNER BANKS               58 59              1021.1R
S CLEMENTE BASIN           61 61  340/  6/  8 1020.6F         8/300/14
SAN NICOLAS IS.               58                N/A          10/300/14
SO. S. ROSA ISLA           56 56  320/ 21/ 25 1021.3S         8/310/14
W. S. BARBARA CH           55 56  320/ 21/ 29 1021.7
M. S. BARBARA CH           58 58   30/  8/ 10 1021.8
S. MONICA BASIN               60  330/ 12/ 16 1020.6
S PEDRO CHANNEL               60                N/A           2/270/15
CMP PENDLETON NS              59                N/A           2/250/14
OCEANSIDE OFFSHR              60                N/A           2/270/12
TORREY PINES OTR              61                N/A           3/270/15
SAN DIEGO BAY                 63              1021.0F
POINT LOMA SOUTH              61                N/A           3/280/14

$$




USA.gov is the U.S. government's official web portal to all federal, state and local government web resources and services.